Historyczne dane pomiarowe

Dodano dane terminowe – wersja testowa.

Dane z okresu 1951-2019

Wersja bazy: 1.34 [2019-03-16, lista zmian], aktualizacja planowana na 2019-04-15

Dane meteo z obszaru Polski uzyskane na podstawie danych udostępnionych przez Instytut Meteorologii i Gospodarki Wodnej – Państwowy Instytut Badawczy.

 

Wybierz Datę:    

       

TemperaturaWilgotnośćWiatrCiśnienieOpadyŚniegCzas trwania zjawisk
 Stacja t tx tn tng RH VA  wxwx mslp ppp RRR   cm mm wxwxwxwxwxwxwx
2019-07-03 14.6 19.5 10.4--- 1.7 4.0---- 0.0------------
2019-07-02 18.9 23.7 15.8--- 3.0 3.3---- 0.0------------
2019-07-01 22.3 30.4 16.3--- 3.3 5.0---- 0.4------------
2019-06-30 22.1 29.8 13.4--- 0.0 1.3---- 0.0------------
2019-06-29 16.5 21.4 12.0--- 4.0 2.7---- 0.0------------
2019-06-28 14.2 19.2 10.4--- 5.0 3.3---- 0.0------------
2019-06-27 21.7 25.7 19.0--- 3.7 5.7---- 0.0------------
2019-06-26 23.2 29.0 16.6--- 2.0 2.3---- 0.0------------
2019-06-25 20.8 28.2 12.7--- 2.0 0.7---- 0.0------------
2019-06-24 17.3 20.9 14.6--- 7.7 0.7---- 0.0------------
2019-06-23 16.3 19.2 14.3--- 8.0 1.0---- 0.6------------
2019-06-22 16.8 20.9 13.0--- 7.7 0.7---- 2.7------------
2019-06-21 17.5 22.2 14.0--- 7.7 1.7---- 0.0------------
2019-06-20 17.4 21.7 14.0--- 8.0 1.3---- 9.5------------
2019-06-19 17.8 24.7 13.0--- 5.0 1.0---- 11.9------------
2019-06-18 15.6 20.2 10.6--- 5.7 1.3---- 2.9------------
2019-06-17 14.9 17.7 11.4--- 6.0 0.7---- 12.4------------
2019-06-16 19.9 26.9 14.8--- 5.3 2.0---- 26.6------------
2019-06-15 23.0 28.8 16.4--- 3.3 1.0---- 0.0------------
2019-06-14 22.1 26.8 17.2--- 5.3 1.0---- 0.7------------
2019-06-13 22.4 28.3 16.8--- 2.7 2.3---- 0.0------------
2019-06-12 22.2 27.4 16.0--- 1.3 1.7---- 0.0------------
2019-06-11 21.7 27.3 15.4--- 1.0 2.3---- 0.0------------
2019-06-10 20.1 27.3 12.3--- 1.3 1.7---- 0.0------------
2019-06-09 17.0 22.9 11.8--- 4.0 1.7---- 0.0------------
2019-06-08 18.0 24.9 13.3--- 4.0 1.7---- 0.3------------
2019-06-07 16.6 21.7 11.3--- 7.3 1.0---- 0.2------------
2019-06-06 15.6 20.6 10.8--- 4.7 1.7---- 1.8------------
2019-06-05 17.4 23.1 11.3--- 2.3 1.3---- 0.0------------
2019-06-04 18.0 23.2 12.5--- 3.7 0.7---- 0.2------------
2019-06-03 17.0 22.1 11.7--- 2.0 1.0---- 0.0------------
2019-06-02 16.4 21.5 11.3--- 2.7 0.7---- 0.0------------
2019-06-01 13.5 19.0 7.9--- 6.3 0.3---- 8.5------------
2019-05-31 10.1 15.2 5.3--- 5.0 0.3---- 0.3------------
2019-05-30 6.6 8.0 5.5--- 8.0 1.0---- 24.1------------
2019-05-29 9.7 13.8 7.3--- 8.0 2.3---- 10.9------------
2019-05-28 13.9 18.1 11.3--- 6.3 2.0---- 2.6------------
2019-05-27 15.5 19.3 10.9--- 6.0 0.0---- 0.3------------
2019-05-26 14.4 19.3 8.8--- 3.3 1.7---- 0.0------------
2019-05-25 12.2 16.3 6.7--- 1.7 2.0---- 0.0------------
2019-05-24 8.3 10.0 6.7--- 8.0 1.7---- 3.0------------
2019-05-23 7.8 9.5 6.8--- 8.0 3.3---- 16.6------------
2019-05-22 10.7 14.8 8.9--- 8.0 3.7---- 6.7------------
2019-05-21 10.9 14.3 7.6--- 8.0 1.3---- 8.2------------
2019-05-20 14.6 17.8 11.9--- 7.0 1.7---- 0.0------------
2019-05-19 14.7 19.7 8.5--- 4.7 1.3---- 0.2------------
2019-05-18 12.6 19.2 7.0--- 3.3 1.3---- 0.7------------
2019-05-17 11.0 16.9 6.3--- 4.7 0.7---- 0.0------------
2019-05-16 9.2 15.5 4.1--- 5.7 0.7---- 0.0------------
2019-05-15 3.1 5.4 0.5--- 8.0 0.7---- 12.2-- 5---------
2019-05-14 1.0 3.5 -0.5--- 8.0 0.3---- 20.7-- 8---------
2019-05-13 3.8 6.0 2.9--- 8.0 2.7---- 8.9------------
2019-05-12 9.0 14.4 5.8--- 7.3 1.7---- 5.4------------
2019-05-11 10.5 15.3 6.5--- 6.7 2.0---- 0.0------------
2019-05-10 8.2 12.9 4.5--- 5.7 2.3---- 0.0------------
2019-05-09 5.7 9.5 2.9--- 8.0 0.3---- 3.2------------
2019-05-08 5.7 11.2 -0.1--- 1.7 0.3---- 0.0------------
2019-05-07 2.3 5.5 -0.6--- 7.7 2.0---- 0.1-- 16---------
2019-05-06 0.3 2.0 -0.6--- 8.0 2.7---- 5.0-- 9---------
2019-05-05 2.2 8.5 -0.6--- 8.0 2.3---- 14.5------------
187.1 ms

 

Źródłem pochodzenia danych jest Instytut Meteorologii i Gospodarki Wodnej – Państwowy Instytut Badawczy. Dane Instytutu Meteorologii i Gospodarki Wodnej – Państwowego Instytutu Badawczego zostały przetworzone.

Dane źródłowe można odnaleźć na stronie https://dane.imgw.pl